DW2182 Weather Reports


time (UTC)temp
F
wind
direction
speed
knots
gust
knots
rain 1hr
in
rain 24hr
in
rain mn
in
humidity
%
barometer
mb
20260904132518 74 90 1.7 3.5 0.00 0.01 0.00 93 1010.5
20260904131537 73 90 0.9 2.6 0.00 0.01 0.00 94 1010.3
20260904130518 73 0.0 2.6 0.00 0.01 0.00 95 1010.3
20260904125518 72 0.0 0.0 0.00 0.02 0.00 95 1010.3
20260904124518 72 68 0.9 1.7 0.00 0.02 0.00 96 1010.3
20260904123518 72 68 0.9 2.6 0.00 0.02 0.00 96 1010.2
20260904122517 72 68 1.7 3.5 0.00 0.02 0.00 96 1010.1
20260904121517 71 68 0.9 2.6 0.00 0.02 0.00 97 1010.1
20260904120517 71 0.0 0.9 0.00 0.02 0.00 96 1010.1
20260904115537 71 0.0 0.0 0.00 0.02 0.00 96 1009.9
20260904114517 71 0.0 1.7 0.00 0.02 0.00 96 1009.8
20260904113517 71 0.0 0.0 0.00 0.03 0.00 96 1009.7
20260904112518 72 0.0 0.0 0.00 0.03 0.00 96 1009.6
20260904111518 72 0.0 0.0 0.00 0.03 0.00 96 1009.5
20260904110519 72 0.0 0.0 0.00 0.03 0.00 96 1009.5
20260904105517 72 0.0 0.0 0.00 0.03 0.00 95 1009.4
20260904104517 73 0.0 0.0 0.00 0.03 0.00 95 1009.6
20260904103517 73 0.0 0.0 0.00 0.03 0.00 94 1009.6
20260904102517 74 0.0 0.0 0.00 0.04 0.00 94 1009.5
20260904101517 74 0.0 0.0 0.00 0.04 0.00 93 1009.4
20260904100537 74 0.0 0.0 0.00 0.04 0.00 93 1009.4
20260904095517 74 0.0 0.9 0.00 0.05 0.00 93 1009.3
20260904094517 75 90 1.7 2.6 0.00 0.05 0.00 93 1009.4
20260904093537 75 90 2.6 6.1 0.00 0.06 0.00 92 1009.2
20260904092518 75 90 3.5 6.1 0.00 0.07 0.00 92 1009.2
20260904091517 75 90 1.7 2.6 0.00 0.07 0.00 92 1009.2
20260904090517 76 90 2.6 5.2 0.00 0.07 0.00 91 1009.2
20260904085517 76 90 2.6 5.2 0.00 0.07 0.00 91 1009.2
20260904084517 76 90 3.5 6.1 0.00 0.07 0.00 91 1009.2
20260904083517 76 90 2.6 5.2 0.00 0.07 0.00 91 1009.0
20260904082517 77 90 1.7 3.5 0.00 0.07 0.00 91 1009.1
20260904081517 77 90 2.6 5.2 0.00 0.07 0.00 90 1009.1
20260904080537 77 90 3.5 7.0 0.00 0.07 0.00 90 1009.1
20260904075517 77 90 4.3 7.0 0.00 0.07 0.00 90 1009.2
20260904074517 77 90 3.5 6.1 0.00 0.07 0.00 91 1009.3
20260904073517 77 90 3.5 6.1 0.00 0.07 0.00 91 1009.1
20260904072517 77 90 3.5 6.1 0.00 0.07 0.00 91 1009.3
20260904071517 77 90 2.6 6.1 0.00 0.07 0.00 92 1009.2
20260904070517 77 90 4.3 7.8 0.00 0.07 0.00 92 1009.2
20260904065517 77 90 5.2 7.8 0.00 0.07 0.00 93 1009.2
20260904064517 77 90 3.5 6.1 0.00 0.07 0.00 93 1009.2
20260904063537 77 90 2.6 6.1 0.00 0.07 0.00 93 1009.2
20260904062517 77 90 2.6 7.8 0.00 0.07 0.00 93 1009.3
20260904061517 77 90 1.7 5.2 0.00 0.07 0.00 93 1009.3
20260904060517 78 90 2.6 7.8 0.00 0.07 0.00 93 1009.1
20260904055517 78 90 2.6 7.0 0.00 0.07 0.00 93 1009.1
20260904054537 77 90 1.7 6.1 0.00 0.07 0.00 93 1009.0
20260904053517 78 90 1.7 2.6 0.00 0.07 0.00 93 1009.0
20260904052517 77 90 2.6 6.1 0.00 0.07 0.00 92 1008.8
20260904051517 78 90 2.6 4.3 0.00 0.07 0.00 91 1008.8
20260904050517 78 90 4.3 6.1 0.00 0.07 0.00 91 1008.7
20260904045517 78 90 4.3 7.8 0.00 0.07 0.07 91 1008.7
20260904044517 77 90 3.5 7.0 0.00 0.07 0.07 91 1008.6
20260904043517 77 90 1.7 3.5 0.00 0.07 0.07 91 1008.6
20260904042517 77 90 2.6 6.1 0.00 0.07 0.07 91 1008.6
20260904041518 77 90 0.9 2.6 0.00 0.07 0.07 92 1008.8
20260904040537 77 90 1.7 6.1 0.00 0.07 0.07 92 1009.0
20260904035517 77 0.0 0.0 0.00 0.07 0.07 92 1009.0
20260904034517 77 90 0.9 1.7 0.00 0.07 0.07 91 1008.8
20260904033537 78 90 0.9 2.6 0.00 0.07 0.07 90 1008.8
20260904032537 78 90 0.9 1.7 0.00 0.07 0.07 89 1008.8
20260904031517 78 90 0.9 2.6 0.00 0.07 0.07 89 1008.9
20260904030537 78 90 1.7 3.5 0.00 0.07 0.07 89 1008.7
20260904025517 78 90 0.9 3.5 0.00 0.07 0.07 89 1008.6
20260904024538 78 0.0 0.0 0.00 0.07 0.07 89 1008.7
20260904023517 79 90 0.9 2.6 0.00 0.07 0.07 88 1008.4
20260904022517 80 90 2.6 6.1 0.00 0.07 0.07 87 1008.5
20260904021517 79 90 3.5 6.1 0.00 0.07 0.07 88 1008.4
20260904020517 79 90 3.5 5.2 0.00 0.07 0.07 89 1008.4
20260904015517 79 90 1.7 3.5 0.00 0.07 0.07 89 1008.2
20260904014517 80 90 0.9 1.7 0.00 0.07 0.07 88 1008.0
20260904013537 79 90 1.7 5.2 0.00 0.07 0.07 89 1007.9
20260904012557 80 90 0.9 2.6 0.00 0.07 0.07 89 1007.8
20260904011516 80 90 0.9 2.6 0.00 0.07 0.07 88 1007.6
20260904010517 80 90 2.6 7.0 0.00 0.07 0.07 87 1007.4
20260904005517 80 68 0.9 2.6 0.00 0.07 0.07 88 1007.2
20260904004517 81 68 0.9 3.5 0.00 0.07 0.07 87 1007.3
20260904003517 81 68 0.9 2.6 0.00 0.07 0.07 86 1007.3
20260904002517 81 68 0.9 2.6 0.00 0.07 0.07 86 1007.4
20260904001517 82 90 1.7 3.5 0.00 0.07 0.07 86 1007.4
20260904000557 82 90 1.7 6.1 0.00 0.07 0.07 84 1007.2
20260903235517 82 68 1.7 4.3 0.00 0.07 0.07 84 1007.4
20260903234517 83 68 0.9 2.6 0.00 0.07 0.07 82 1007.1
20260903233517 84 68 1.7 3.5 0.00 0.07 0.07 81 1006.6
20260903232517 84 90 1.7 3.5 0.00 0.07 0.07 78 1007.2
20260903231517 84 68 2.6 7.0 0.00 0.07 0.07 76 1007.1
20260903230516 85 90 5.2 8.7 0.00 0.07 0.07 75 1007.2
20260903225537 86 90 6.1 9.6 0.00 0.07 0.07 73 1007.6
20260903224516 87 90 6.1 9.6 0.00 0.07 0.07 71 1007.4
20260903223517 87 90 6.1 10.4 0.00 0.07 0.07 71 1007.5
20260903222517 87 90 4.3 10.4 0.00 0.07 0.07 70 1007.1
20260903221517 87 90 5.2 9.6 0.00 0.07 0.07 71 1006.9
20260903220537 86 90 6.1 9.6 0.00 0.07 0.07 71 1006.6
20260903215516 88 68 2.6 7.0 0.00 0.07 0.07 71 1006.4
20260903214557 88 68 3.5 7.8 0.00 0.07 0.07 70 1006.6
20260903213517 88 90 4.3 7.8 0.00 0.07 0.07 69 1006.7
20260903212536 88 90 5.2 13.0 0.00 0.07 0.07 67 1007.0
20260903211556 89 90 6.1 8.7 0.00 0.07 0.07 66 1007.2
20260903210537 88 90 7.0 11.3 0.00 0.07 0.07 67 1007.6
20260903205537 88 90 7.0 10.4 0.00 0.07 0.07 67 1007.6
20260903204536 87 90 7.8 11.3 0.00 0.07 0.07 67 1007.7
20260903203516 86 90 7.0 12.2 0.00 0.07 0.07 68 1007.5
20260903202516 86 90 5.2 10.4 0.00 0.07 0.07 68 1007.5
20260903201516 87 90 7.8 16.5 0.00 0.07 0.07 65 1007.5
20260903200517 88 90 7.8 13.9 0.00 0.07 0.07 65 1007.9
20260903195516 89 90 8.7 15.6 0.00 0.07 0.07 63 1007.5
20260903194517 89 90 10.4 17.4 0.00 0.07 0.07 62 1007.8
20260903193516 88 90 7.8 13.9 0.00 0.07 0.07 66 1007.6
20260903192518 89 90 7.8 13.0 0.00 0.07 0.07 64 1007.5
20260903191517 89 90 11.3 18.2 0.00 0.07 0.07 62 1007.6
20260903190516 88 90 10.4 16.5 0.00 0.07 0.07 63 1007.7
20260903185516 88 90 11.3 22.6 0.00 0.07 0.07 64 1007.9
20260903184516 87 90 10.4 20.9 0.00 0.07 0.07 65 1007.7
20260903183516 88 90 10.4 16.5 0.00 0.07 0.07 65 1008.0
20260903182517 88 90 9.6 17.4 0.00 0.07 0.07 66 1008.0
20260903181516 87 90 8.7 16.5 0.00 0.07 0.07 67 1008.2
20260903180516 86 90 9.6 14.8 0.00 0.07 0.07 69 1008.4
20260903175516 85 90 7.8 11.3 0.00 0.07 0.07 71 1008.3
20260903174537 84 90 9.6 15.6 0.00 0.07 0.07 73 1008.3
20260903173516 83 90 7.0 13.9 0.00 0.07 0.07 74 1008.4
20260903172516 82 90 7.8 11.3 0.00 0.07 0.07 74 1008.4
20260903171516 80 90 8.7 13.9 0.00 0.07 0.07 75 1008.4
20260903170516 82 90 6.1 13.0 0.01 0.07 0.07 74 1008.5
20260903165516 83 90 7.8 13.9 0.01 0.07 0.07 72 1008.7
20260903164516 82 90 7.8 15.6 0.01 0.07 0.07 74 1008.7
20260903163557 82 90 7.0 13.0 0.01 0.08 0.07 73 1008.7
20260903162536 80 90 5.2 10.4 0.01 0.08 0.07 75 1008.6
20260903161516 83 90 7.0 13.9 0.01 0.08 0.07 71 1008.8
20260903160516 83 90 8.7 17.4 0.00 0.07 0.06 71 1008.9
20260903155517 83 90 9.6 18.2 0.00 0.07 0.06 72 1009.0
20260903154516 82 90 7.0 13.9 0.00 0.07 0.06 74 1008.9
20260903153516 82 90 7.8 14.8 0.00 0.07 0.06 76 1009.0
20260903152516 81 90 6.1 16.5 0.00 0.07 0.06 77 1009.0
20260903151536 80 90 7.0 13.9 0.00 0.07 0.06 79 1008.9
20260903150536 79 68 4.3 10.4 0.00 0.07 0.06 81 1009.1
20260903145516 79 90 5.2 9.6 0.00 0.08 0.06 82 1009.2
20260903144516 78 90 5.2 13.0 0.00 0.08 0.06 82 1009.3
20260903143516 78 90 5.2 10.4 0.00 0.08 0.06 82 1009.5
20260903142516 78 68 3.5 7.8 0.00 0.08 0.06 81 1009.2
20260903141516 77 68 2.6 8.7 0.00 0.08 0.06 82 1009.1
20260903140516 77 68 2.6 7.0 0.00 0.08 0.06 81 1009.0
20260903135556 76 68 2.6 8.7 0.01 0.08 0.06 81 1009.0
20260903134516 75 68 1.7 8.7 0.01 0.08 0.06 83 1008.9
20260903133516 74 68 1.7 3.5 0.01 0.08 0.06 84 1009.0